DW8633 Weather Reports


Display with metric or nautical units.
time (UTC)temp
F
wind
direction
speed
MPH
gust
MPH
rain 1hr
in
rain 24hr
in
rain mn
in
humidity
%
barometer
mb
20260508085001 43 360 8.0 13.0 0.00 0.00 0.00 79 926.7
20260508084501 43 360 9.0 13.0 0.00 0.00 0.00 79 926.7
20260508084101 43 360 9.0 13.0 0.00 0.00 0.00 78 926.7
20260508083109 43 360 11.0 15.0 0.00 0.00 0.00 79 926.4
20260508082559 43 360 9.0 12.0 0.00 0.00 0.00 79 926.4
20260508082058 42 360 8.0 10.0 0.00 0.00 0.00 79 926.4
20260508081557 42 360 8.0 10.0 0.00 0.00 0.00 79 926.3
20260508081056 41 360 6.0 8.0 0.00 0.00 0.00 78 926.4
20260508080555 41 360 5.0 8.0 0.00 0.00 0.00 76 926.5
20260508080109 41 360 5.0 8.0 0.00 0.00 0.00 77 926.5
20260508075554 41 360 6.0 8.0 0.00 0.00 0.00 78 926.5
20260508075052 40 360 5.0 6.0 0.00 0.00 0.00 77 926.4
20260508074554 39 360 4.0 6.0 0.00 0.00 0.00 75 926.6
20260508074050 40 360 2.0 6.0 0.00 0.00 0.00 75 926.6
20260508073056 39 360 0.0 0.0 0.00 0.00 0.00 71 926.6
20260508072553 40 360 0.0 4.0 0.00 0.00 0.00 73 926.6
20260508072049 39 360 2.0 4.0 0.00 0.00 0.00 74 926.6
20260508071547 39 360 0.0 2.0 0.00 0.00 0.00 71 926.6
20260508071046 39 360 0.0 1.0 0.00 0.00 0.00 69 926.6
20260508070546 39 360 0.0 1.0 0.00 0.00 0.00 67 926.7
20260508070050 39 360 0.0 1.0 0.00 0.00 0.00 64 926.7
20260508065546 39 360 0.0 1.0 0.00 0.00 0.00 65 926.7
20260508065044 39 360 0.0 1.0 0.00 0.00 0.00 65 926.8
20260508064549 38 360 0.0 2.0 0.00 0.00 0.00 64 926.8
20260508064044 38 360 0.0 4.0 0.00 0.00 0.00 62 926.8
20260508063044 39 360 1.0 5.0 0.00 0.00 0.00 60 926.7
20260508062541 40 360 1.0 5.0 0.00 0.00 0.00 58 926.6
20260508062039 41 360 1.0 4.0 0.00 0.00 0.00 57 926.7
20260508061542 42 360 0.0 1.0 0.00 0.00 0.00 57 926.7
20260508061040 42 360 0.0 2.0 0.00 0.00 0.00 58 926.7
20260508060536 41 360 0.0 2.0 0.00 0.00 0.00 60 926.7
20260508060036 41 360 0.0 2.0 0.00 0.00 0.00 59 926.7
20260508055536 41 360 0.0 0.0 0.00 0.00 0.00 59 926.7
20260508055037 40 360 0.0 0.0 0.00 0.00 0.00 58 926.7
20260508054545 40 360 0.0 0.0 0.00 0.00 0.00 57 926.7
20260508054039 40 360 0.0 0.0 0.00 0.00 0.00 57 926.9
20260508053050 40 360 0.0 1.0 0.00 0.00 0.00 57 926.9
20260508052537 40 360 0.0 1.0 0.00 0.00 0.00 56 926.9
20260508052037 41 360 0.0 0.0 0.00 0.00 0.00 54 927.0
20260508051539 41 360 0.0 1.0 0.00 0.00 0.00 53 927.1
20260508051036 42 360 0.0 1.0 0.00 0.00 0.00 52 927.1
20260508050536 43 360 0.0 4.0 0.00 0.00 0.00 52 927.0
20260508050048 44 360 1.0 4.0 0.00 0.00 0.00 49 927.0
20260508045536 45 360 1.0 3.0 0.00 0.00 0.00 47 927.1
20260508045036 47 360 0.0 0.0 0.00 0.00 0.00 46 927.1
20260508044535 47 360 0.0 0.0 0.00 0.00 0.00 46 927.0
20260508044037 47 360 0.0 0.0 0.00 0.00 0.00 46 927.1
20260508043033 47 360 0.0 0.0 0.00 0.00 0.00 45 927.1
20260508042533 47 360 0.0 0.0 0.00 0.00 0.00 45 927.0
20260508042033 47 360 0.0 0.0 0.00 0.00 0.00 45 927.0
20260508041533 47 360 0.0 0.0 0.00 0.00 0.00 44 927.0
20260508041033 48 360 0.0 1.0 0.00 0.00 0.00 44 926.9
20260508040537 48 360 0.0 1.0 0.00 0.00 0.00 44 927.0
20260508040047 48 360 0.0 1.0 0.00 0.00 0.00 44 927.0
20260508035532 49 360 0.0 0.0 0.00 0.00 0.00 43 927.1
20260508035032 50 360 0.0 0.0 0.00 0.00 0.00 42 927.0
20260508034541 51 360 0.0 0.0 0.00 0.00 0.00 40 927.1
20260508034032 51 360 0.0 0.0 0.00 0.00 0.00 39 927.1
20260508033033 51 360 0.0 0.0 0.00 0.00 0.00 39 927.2
20260508032533 51 360 0.0 0.0 0.00 0.00 0.00 39 927.2
20260508032032 51 360 0.0 0.0 0.00 0.00 0.00 39 927.2
20260508031534 51 360 0.0 0.0 0.00 0.00 0.00 38 927.2
20260508031032 51 360 0.0 0.0 0.00 0.00 0.00 37 927.2
20260508030533 52 360 0.0 0.0 0.00 0.00 0.00 37 927.1
20260508030033 52 360 0.0 1.0 0.00 0.00 0.00 37 927.0
20260508025532 52 360 0.0 2.0 0.00 0.00 0.00 37 927.0
20260508025032 52 360 1.0 4.0 0.00 0.00 0.00 37 927.1
20260508024534 52 360 2.0 3.0 0.00 0.00 0.00 37 927.1
20260508024034 52 360 1.0 3.0 0.00 0.00 0.00 37 926.9
20260508023033 52 360 4.0 6.0 0.00 0.00 0.00 37 926.8
20260508022531 53 360 5.0 6.0 0.00 0.00 0.00 37 926.9
20260508022031 54 360 4.0 6.0 0.00 0.00 0.00 35 926.9
20260508021532 55 360 5.0 6.0 0.00 0.00 0.00 36 926.8
20260508021033 55 360 4.0 6.0 0.00 0.00 0.00 36 926.9
20260508020530 56 360 5.0 6.0 0.00 0.00 0.00 34 926.8
20260508020030 58 360 5.0 6.0 0.00 0.00 0.00 34 926.7
20260508015530 59 360 5.0 8.0 0.00 0.00 0.00 33 926.6
20260508015030 59 360 4.0 6.0 0.00 0.00 0.00 33 926.5
20260508014530 60 325 5.0 8.0 0.00 0.00 0.00 32 926.6
20260508014030 61 326 5.0 9.0 0.00 0.00 0.00 32 926.6
20260508013033 62 333 7.0 11.0 0.00 0.00 0.00 31 926.6
20260508012532 62 319 7.0 12.0 0.00 0.00 0.00 32 926.6
20260508012032 63 331 7.0 12.0 0.00 0.00 0.00 32 926.7
20260508011532 63 308 8.0 14.0 0.00 0.00 0.00 31 926.6
20260508011030 63 307 10.0 14.0 0.00 0.00 0.00 31 926.6
20260508010530 63 304 8.0 11.0 0.00 0.00 0.00 30 926.6
20260508010031 63 304 7.0 12.0 0.00 0.00 0.00 30 926.6
20260508005529 63 283 8.0 12.0 0.00 0.00 0.00 30 926.6
20260508005030 63 291 8.0 12.0 0.00 0.00 0.00 30 926.6
20260508004532 62 315 7.0 13.0 0.00 0.00 0.00 29 926.6
20260508004029 63 288 9.0 16.0 0.00 0.00 0.00 29 926.6
20260508003028 64 317 13.0 19.0 0.00 0.00 0.00 27 926.7
20260508002527 65 304 11.0 19.0 0.00 0.00 0.00 27 926.7
20260508002027 65 300 9.0 16.0 0.00 0.00 0.00 28 926.7
20260508001526 64 256 11.0 18.0 0.00 0.00 0.00 27 926.8
20260508001027 64 298 9.0 18.0 0.00 0.00 0.00 27 926.9
20260508000529 65 286 10.0 18.0 0.00 0.00 0.00 27 926.8
20260508000029 65 288 11.0 16.0 0.00 0.00 0.00 27 926.8
20260507235526 65 275 11.0 16.0 0.00 0.00 0.00 27 926.7
20260507235026 65 288 10.0 20.0 0.00 0.00 0.00 27 926.7
20260507234541 65 316 14.0 20.0 0.00 0.00 0.00 27 926.7
20260507234026 65 316 12.0 20.0 0.00 0.00 0.00 26 926.7
20260507233028 65 317 12.0 18.0 0.00 0.00 0.00 26 926.6
20260507232527 65 292 10.0 18.0 0.00 0.00 0.00 27 926.6
20260507232024 65 344 10.0 18.0 0.00 0.00 0.00 23 926.6
20260507231525 65 325 10.0 15.0 0.00 0.00 0.00 26 926.5
20260507231023 64 316 6.0 18.0 0.00 0.00 0.00 25 926.7
20260507230523 64 336 10.0 18.0 0.00 0.00 0.00 25 926.7
20260507230023 64 355 11.0 16.0 0.00 0.00 0.00 25 926.7
20260507225526 64 333 10.0 13.0 0.00 0.00 0.00 25 926.7
20260507225023 64 342 5.0 16.0 0.00 0.00 0.00 24 926.7
20260507224525 65 351 9.0 19.0 0.00 0.00 0.00 23 926.7
20260507224022 65 301 9.0 19.0 0.00 0.00 0.00 24 926.6
20260507223023 64 14 9.0 15.0 0.00 0.00 0.00 23 926.8
20260507222527 64 348 8.0 19.0 0.00 0.00 0.00 24 926.8
20260507222022 64 333 14.0 19.0 0.00 0.00 0.00 23 926.8
20260507221530 64 284 5.0 15.0 0.00 0.00 0.00 23 926.8
20260507221021 64 348 8.0 21.0 0.00 0.00 0.00 23 926.9
20260507220520 64 329 11.0 21.0 0.00 0.00 0.00 23 927.0
20260507220031 65 321 10.0 20.0 0.00 0.00 0.00 23 926.9
20260507215520 64 355 12.0 20.0 0.00 0.00 0.00 23 927.0
20260507215019 64 271 9.0 15.0 0.00 0.00 0.00 23 927.0
20260507214519 64 299 6.0 14.0 0.00 0.00 0.00 22 927.0
20260507214019 65 348 10.0 20.0 0.00 0.00 0.00 23 927.2
20260507213023 64 349 9.0 16.0 0.00 0.00 0.00 24 927.3
20260507212516 64 341 8.0 16.0 0.00 0.00 0.00 22 927.4
20260507212016 64 13 7.0 20.0 0.00 0.00 0.00 24 927.5
20260507211517 63 325 13.0 18.0 0.00 0.00 0.00 23 927.5
20260507211015 63 329 12.0 20.0 0.00 0.00 0.00 23 927.6
20260507210515 64 316 10.0 19.0 0.00 0.00 0.00 23 927.6
20260507210021 64 290 10.0 19.0 0.00 0.00 0.00 23 927.5
20260507205517 64 294 9.0 19.0 0.00 0.00 0.00 23 927.6
20260507205014 64 336 10.0 18.0 0.00 0.00 0.00 22 927.7
20260507204514 64 253 5.0 15.0 0.00 0.00 0.00 22 927.6
20260507204017 65 309 12.0 15.0 0.00 0.00 0.00 22 927.6
20260507203016 63 340 6.0 12.0 0.00 0.00 0.00 23 927.7
20260507202514 63 253 6.0 12.0 0.00 0.00 0.00 23 927.7
20260507202015 62 244 7.0 15.0 0.00 0.00 0.00 23 927.7
20260507201513 63 241 10.0 15.0 0.00 0.00 0.00 22 927.7
20260507201017 62 350 5.0 12.0 0.00 0.00 0.00 22 927.7
20260507200513 62 342 4.0 15.0 0.00 0.00 0.00 22 927.7
20260507200014 63 341 10.0 15.0 0.00 0.00 0.00 22 927.8
20260507195513 63 318 10.0 18.0 0.00 0.00 0.00 22 927.7
20260507195014 63 314 13.0 18.0 0.00 0.00 0.00 21 927.7
20260507194528 64 317 7.0 14.0 0.00 0.00 0.00 21 927.7
20260507194012 64 329 5.0 11.0 0.00 0.00 0.00 21 927.7
20260507193015 64 276 3.0 14.0 0.00 0.00 0.00 23 927.8
20260507192511 64 242 10.0 14.0 0.00 0.00 0.00 22 927.8
20260507192009 63 275 7.0 13.0 0.00 0.00 0.00 23 927.8
20260507191509 62 217 2.0 12.0 0.00 0.00 0.00 22 927.9
20260507191012 62 346 7.0 16.0 0.00 0.00 0.00 21 927.9
20260507190509 62 343 8.0 16.0 0.00 0.00 0.00 22 928.1
20260507190012 62 291 9.0 18.0 0.00 0.00 0.00 22 927.9
20260507185511 62 285 10.0 18.0 0.00 0.00 0.00 22 928.1
20260507185008 62 234 5.0 13.0 0.00 0.00 0.00 24 928.0
20260507184505 62 263 7.0 13.0 0.00 0.00 0.00 22 928.2
20260507184004 61 254 4.0 9.0 0.00 0.00 0.00 23 928.2
20260507183003 60 240 6.0 16.0 0.00 0.00 0.00 24 928.5
20260507182502 61 329 5.0 12.0 0.00 0.00 0.00 24 928.5
20260507182002 61 17 4.0 15.0 0.00 0.00 0.00 23 928.6
20260507181501 61 340 7.0 16.0 0.00 0.00 0.00 25 928.5
20260507181101 61 276 10.0 16.0 0.00 0.00 0.00 25 928.6
20260507180600 60 230 7.0 14.0 0.00 0.00 0.00 24 928.6
20260507180104 59 360 9.0 15.0 0.00 0.00 0.00 25 928.6
20260507175558 59 330 10.0 15.0 0.00 0.00 0.00 24 928.7
20260507175059 59 338 1.0 16.0 0.00 0.00 0.00 25 928.6
20260507174604 58 17 6.0 12.0 0.00 0.00 0.00 26 928.7
20260507174057 58 350 8.0 12.0 0.00 0.00 0.00 25 928.7
20260507173113 58 350 4.0 10.0 0.00 0.00 0.00 25 928.8
20260507172557 58 348 4.0 14.0 0.00 0.00 0.00 25 928.9
20260507172058 59 355 8.0 15.0 0.00 0.00 0.00 25 928.8
20260507171557 59 334 5.0 12.0 0.00 0.00 0.00 26 928.8
20260507171056 58 311 4.0 10.0 0.00 0.00 0.00 25 928.8
20260507170556 58 345 2.0 8.0 0.00 0.00 0.00 25 928.8
20260507170058 57 205 4.0 11.0 0.00 0.00 0.00 25 928.8
20260507165555 57 290 6.0 11.0 0.00 0.00 0.00 26 928.8
20260507165055 57 5 4.0 11.0 0.00 0.00 0.00 25 928.8
20260507164628 58 317 6.0 11.0 0.00 0.00 0.00 26 928.9
20260507164054 58 294 3.0 8.0 0.00 0.00 0.00 26 928.9
20260507163056 57 83 0.0 7.0 0.00 0.00 0.00 27 928.9
20260507162554 57 83 2.0 9.0 0.00 0.00 0.00 26 928.9
20260507162052 57 92 4.0 9.0 0.00 0.00 0.00 26 928.9
20260507161558 57 113 3.0 8.0 0.00 0.00 0.00 26 928.9
20260507161056 57 110 4.0 8.0 0.00 0.00 0.00 27 928.9
20260507160551 56 95 0.0 5.0 0.00 0.00 0.00 27 929.0
20260507160051 57 96 2.0 5.0 0.00 0.00 0.00 26 929.0
20260507155550 56 96 1.0 6.0 0.00 0.00 0.00 27 929.0
20260507155048 56 96 1.0 6.0 0.00 0.00 0.00 27 929.0
20260507154551 56 63 1.0 5.0 0.00 0.00 0.00 27 929.0
20260507154047 56 63 0.0 7.0 0.00 0.00 0.00 27 929.0
20260507153047 54 254 0.0 5.0 0.00 0.00 0.00 29 929.0
20260507152548 54 254 2.0 5.0 0.00 0.00 0.00 29 929.1
20260507152047 54 191 2.0 4.0 0.00 0.00 0.00 28 929.1
20260507151548 54 190 0.0 4.0 0.00 0.00 0.00 30 929.1
20260507151047 53 190 0.0 4.0 0.00 0.00 0.00 29 929.2
20260507150543 53 190 0.0 5.0 0.00 0.00 0.00 32 929.0
20260507150045 52 190 0.0 6.0 0.00 0.00 0.00 32 928.9
20260507145541 51 174 1.0 6.0 0.00 0.00 0.00 31 929.0
20260507145041 51 174 0.0 7.0 0.00 0.00 0.00 32 929.1
20260507144540 51 174 2.0 7.0 0.00 0.00 0.00 32 929.1
20260507144039 50 109 0.0 4.0 0.00 0.00 0.00 33 929.1
20260507143041 50 89 0.0 1.0 0.00 0.00 0.00 33 929.2
20260507142536 49 360 0.0 2.0 0.00 0.00 0.00 34 929.1
20260507142036 48 360 0.0 4.0 0.00 0.00 0.00 34 929.2
20260507141534 47 360 1.0 4.0 0.00 0.00 0.00 35 929.3
20260507141134 46 360 2.0 4.0 0.00 0.00 0.00 36 929.3
20260507140530 45 360 0.0 1.0 0.00 0.00 0.00 38 929.2
20260507140030 44 360 0.0 2.0 0.00 0.00 0.00 39 929.2
20260507135527 43 360 0.0 2.0 0.00 0.00 0.00 41 929.1
20260507135027 42 360 0.0 2.0 0.00 0.00 0.00 43 929.2
20260507134525 40 360 0.0 2.0 0.00 0.00 0.00 45 929.2
20260507134024 39 360 0.0 1.0 0.00 0.00 0.00 47 929.1
20260507133027 36 107 0.0 1.0 0.00 0.00 0.00 51 929.1
20260507132523 35 360 0.0 1.0 0.00 0.00 0.00 54 929.0
20260507132022 34 360 0.0 0.0 0.00 0.00 0.00 56 929.1
20260507131522 32 360 0.0 0.0 0.00 0.00 0.00 57 929.1
20260507131024 31 360 0.0 1.0 0.00 0.00 0.00 58 929.2
20260507130524 30 360 0.0 1.0 0.00 0.00 0.00 59 929.1
20260507130021 29 360 0.0 1.0 0.00 0.00 0.00 60 929.1
20260507125523 28 360 0.0 1.0 0.00 0.00 0.00 62 929.2
20260507125020 28 360 0.0 0.0 0.00 0.00 0.00 63 929.1
20260507124526 27 360 0.0 0.0 0.00 0.00 0.00 63 929.2
20260507124022 27 360 0.0 1.0 0.00 0.00 0.00 62 929.1
20260507123021 27 360 0.0 0.0 0.00 0.00 0.00 62 929.1
20260507122519 27 360 0.0 0.0 0.00 0.00 0.00 62 929.1
20260507122019 26 360 0.0 0.0 0.00 0.00 0.00 61 929.0
20260507121519 26 360 0.0 0.0 0.00 0.00 0.00 61 929.0
20260507121019 26 360 0.0 2.0 0.00 0.00 0.00 62 929.0
20260507120523 25 360 0.0 5.0 0.00 0.00 0.00 62 929.0
20260507120019 25 360 1.0 5.0 0.00 0.00 0.00 62 928.9
20260507115518 24 360 2.0 5.0 0.00 0.00 0.00 60 928.9
20260507115022 24 360 3.0 5.0 0.00 0.00 0.00 60 928.9
20260507114516 24 360 4.0 5.0 0.00 0.00 0.00 60 928.9
20260507114018 24 360 0.0 4.0 0.00 0.00 0.00 62 928.9
20260507113034 24 360 0.0 1.0 0.00 0.00 0.00 65 928.8
20260507112513 24 360 0.0 0.0 0.00 0.00 0.00 64 928.8
20260507112013 24 360 0.0 0.0 0.00 0.00 0.00 63 928.9
20260507111511 24 360 0.0 0.0 0.00 0.00 0.00 62 928.9
20260507111011 25 360 0.0 0.0 0.00 0.00 0.00 60 928.9
20260507110509 25 360 0.0 0.0 0.00 0.00 0.00 59 928.9
20260507110011 25 360 0.0 0.0 0.00 0.00 0.00 58 928.9
20260507105506 26 360 0.0 0.0 0.00 0.00 0.00 57 928.9
20260507105005 26 360 0.0 0.0 0.00 0.00 0.00 56 928.9
20260507104506 27 360 0.0 0.0 0.00 0.00 0.00 56 928.9
20260507104010 27 360 0.0 0.0 0.00 0.00 0.00 57 928.9
20260507103006 27 360 0.0 4.0 0.00 0.00 0.00 57 928.8
20260507102506 27 360 2.0 3.0 0.00 0.00 0.00 55 928.8
20260507102006 27 360 2.0 4.0 0.00 0.00 0.00 58 928.7
20260507101513 27 360 0.0 0.0 0.00 0.00 0.00 59 928.7
20260507101005 26 360 0.0 0.0 0.00 0.00 0.00 60 928.6
20260507100504 26 360 0.0 0.0 0.00 0.00 0.00 60 928.7
20260507100005 27 360 0.0 0.0 0.00 0.00 0.00 59 928.7
20260507095504 27 360 0.0 0.0 0.00 0.00 0.00 55 928.6
20260507095004 28 360 0.0 0.0 0.00 0.00 0.00 55 928.6
20260507094504 28 360 0.0 0.0 0.00 0.00 0.00 56 928.6
20260507094003 28 360 0.0 4.0 0.00 0.00 0.00 57 928.7
20260507093003 27 360 0.0 0.0 0.00 0.00 0.00 62 928.5
20260507092505 27 360 0.0 0.0 0.00 0.00 0.00 62 928.6
20260507092002 27 360 0.0 0.0 0.00 0.00 0.00 61 928.6
20260507091503 27 360 0.0 0.0 0.00 0.00 0.00 60 928.6
20260507091002 27 360 0.0 0.0 0.00 0.00 0.00 59 928.7
20260507090601 27 360 0.0 1.0 0.00 0.00 0.00 57 928.7
20260507090100 27 360 0.0 1.0 0.00 0.00 0.00 56 928.7
20260507085559 28 360 0.0 2.0 0.00 0.00 0.00 53 928.7